User: anonymous   Login
Location: Columbia
(38.9520°N, 92.3340°W)
Time: 02:57:15
(UTC-05:00)
Language:

Cosmos 2100 Rocket - Orbit

View from above orbital plane
View from above orbital plane
View from above satellite
View from above satellite

Ground track
Ground track

The orbit data is extracted from the following two-line orbital elements,

1 20805U 90083B   15243.79262255  .00000021  00000-0  52473-5 0  9997
2 20805  82.9390 187.5004 0032106  65.1750 355.9181 13.75770318253283
Epoch (UTC): 31 August 2015 19:01:22
Eccentricity: 0.0032106
inclination: 82.9390°
perigee height: 955 km
apogee height: 1002 km
right ascension of ascending node: 187.5004°
argument of perigee: 65.1750°
revolutions per day: 13.75770318
mean anomaly at epoch: 355.9181°
orbit number at epoch: 25328

The dashed part of the orbit path shows where the satellite is in the earth's shadow,  

DLR